Regional Weather Roundup
Issued by NWS Albany, NY

Home | Current Version | Previous Version | Text Only | Print | Product List | Glossary On
Versions: 1 2 3 4 5 6 7 8 9 10 11 12 13 14 15 16 17 18 19 20 21 22 23 24 25 26 27 28 29 30 31 32 33 34 35 36 37 38 39 40 41 42 43 44 45 46 47 48 49 50
000
ASUS41 KALY 312010
RWRALY

NEW YORK STATE HOURLY WEATHER ROUNDUP
NATIONAL WEATHER SERVICE ALBANY NY
400 PM EDT THU JUL 31 2014

NOTE: "FAIR" INDICATES FEW OR NO CLOUDS BELOW 12,000 FEET WITH NO
SIGNIFICANT WEATHER AND/OR NO OBSTRUCTIONS TO VISIBILITY.

NYZ032-033-038>043-046>054-057>066-NYZ062>081-312100-
EAST


CITY           SKY/WX    TMP DP  RH WIND       PRES   REMARKS
ALBANY         PTSUNNY   76  64  66 N7        30.04S
GLENS FALLS    MOSUNNY   73  62  68 E5        30.05S
POUGHKEEPSIE   MOSUNNY   81  59  47 SW9G17    30.05S
NEWBURGH       MOSUNNY   81  61  50 W15       30.08S
MONTGOMERY     CLOUDY    79  57  46 W9        30.07R
WHITE PLAINS   MOSUNNY   79  60  52 S10       30.08S
ISLIP          MOSUNNY   79  57  46 S14       30.09S
NEW YORK CITY  PTSUNNY   80  61  52 S16G22    30.08S
CENTRAL PARK   PTSUNNY   76  61  59 CALM      30.11S
$$

NYZ005>009-017-018-044>046-055-056-312100-
CENTRAL


CITY           SKY/WX    TMP DP  RH WIND       PRES   REMARKS
FULTON         MOSUNNY   75  58  55 S6        30.03S
SYRACUSE       PTSUNNY   78  57  48 W10       30.03S
ROME           LGT RAIN  72  59  63 S8        30.06R
ELMIRA         PTSUNNY   77  54  44 SW9G18    30.05S
BINGHAMTON     MOSUNNY   73  53  49 SW15G22   30.09S
MONTICELLO     PTSUNNY   75  54  46 W12G20    30.11S
$$

NYZ026>034-041>043-312100-
NORTH


CITY           SKY/WX    TMP DP  RH WIND       PRES   REMARKS
WATERTOWN      SUNNY     73  53  49 SW10      30.03R
FORT DRUM      NOT AVBL
MASSENA        PTSUNNY   67  60  78 S9        30.02S
SARANAC LAKE   PTSUNNY   62  57  83 SW9       30.05R
PLATTSBURGH    PTSUNNY   66  60  81 SE10      30.02S
$$

NYZ001>004-010>016-019>021-312100-
WEST


CITY           SKY/WX    TMP DP  RH WIND       PRES   REMARKS
NIAGARA FALLS  MOSUNNY   74  54  49 SW16      30.02S
BUFFALO        MOSUNNY   73  52  47 SW23      30.03S
DUNKIRK        SUNNY     72  52  49 SW15G23   30.06S
JAMESTOWN      CLOUDY    68  57  68 W7        30.09S
WELLSVILLE     PTSUNNY   73  51  46 W10G20    30.11S
ROCHESTER      PTSUNNY   70  58  65 N5        30.03S
PENN YAN       CLOUDY    70  61  73 W6        30.06S
$$

             KEY
       WCI = WIND CHILL INDEX
       VSB = VISIBILITY
       HX  = HEAT INDEX
$$



USA.gov is the U.S. government's official web portal to all federal, state and local government web resources and services.